NPV1200 LIRI-LGSA

Flight info

Callsign NPV1200
Flight time N/A
Altitude 39000
Route POLIT DCT LODPA DCT RUTOM UM601 TRL UJ65 SOKRI
Aircraft A20N/M-SDE2E3FGHIRWXY/LB1

Departure

Time 2026-05-06 18:15
Airport Salerno Costa d'Amalfi Airport (LIRI)

Arrival

Time N/A
Airport Chania International Airport (LGSA)
Time Latitude Longitude Altitude Speed Heading
2026-05-06 16:52 40.62062 14.92047 88 ft 0 kts 141°
2026-05-06 18:03 40.62070 14.92038 89 ft 4 kts 146°
2026-05-06 18:03 40.62093 14.92024 88 ft 4 kts 176°
2026-05-06 18:04 40.62115 14.92031 89 ft 2 kts 230°
2026-05-06 18:04 40.62116 14.92033 89 ft 0 kts 231°
2026-05-06 18:08 40.62102 14.92010 89 ft 7 kts 231°
2026-05-06 18:08 40.62074 14.91964 87 ft 6 kts 231°
2026-05-06 18:08 40.62053 14.91929 85 ft 4 kts 231°
2026-05-06 18:09 40.62039 14.91898 88 ft 5 kts 256°
2026-05-06 18:09 40.62092 14.91823 87 ft 15 kts 340°
2026-05-06 18:09 40.62141 14.91874 85 ft 0 kts 54°
2026-05-06 18:12 40.62156 14.91900 86 ft 8 kts 46°
2026-05-06 18:12 40.62228 14.91872 85 ft 15 kts 324°
2026-05-06 18:12 40.62308 14.91787 86 ft 9 kts 310°
2026-05-06 18:12 40.62294 14.91749 87 ft 4 kts 224°
2026-05-06 18:13 40.62274 14.91720 87 ft 4 kts 232°
2026-05-06 18:13 40.62269 14.91711 87 ft 0 kts 232°
2026-05-06 18:14 40.62238 14.91656 88 ft 33 kts 234°
2026-05-06 18:14 40.61917 14.91119 91 ft 111 kts 232°
2026-05-06 18:14 40.61323 14.90107 240 ft 155 kts 233°
2026-05-06 18:15 40.60643 14.89012 1009 ft 155 kts 230°
2026-05-06 18:15 40.59942 14.87915 1786 ft 158 kts 230°
2026-05-06 18:15 40.59207 14.86767 2291 ft 173 kts 231°
2026-05-06 18:15 40.58349 14.85513 2627 ft 196 kts 219°
2026-05-06 18:16 40.57018 14.84807 2911 ft 222 kts 189°
2026-05-06 18:16 40.55397 14.84562 3324 ft 247 kts 185°
2026-05-06 18:16 40.53624 14.84370 3966 ft 261 kts 184°
2026-05-06 18:16 40.51802 14.84185 4927 ft 263 kts 182°
2026-05-06 18:17 40.49989 14.84548 5820 ft 268 kts 159°
2026-05-06 18:17 40.48425 14.85901 6737 ft 273 kts 139°
2026-05-06 18:17 40.47042 14.87625 7638 ft 275 kts 139°
2026-05-06 18:17 40.45659 14.89368 8530 ft 277 kts 139°
2026-05-06 18:18 40.44259 14.91131 9431 ft 280 kts 140°
2026-05-06 18:18 40.42864 14.92884 10258 ft 283 kts 139°
2026-05-06 18:18 40.41429 14.94684 10999 ft 288 kts 139°
2026-05-06 18:18 40.39972 14.96505 11767 ft 291 kts 140°
2026-05-06 18:19 40.38492 14.98349 12547 ft 295 kts 140°
2026-05-06 18:19 40.36998 15.00208 13319 ft 298 kts 141°
2026-05-06 18:19 40.35481 15.02095 14045 ft 302 kts 143°
2026-05-06 18:19 40.33946 15.04001 14696 ft 306 kts 143°
2026-05-06 18:20 40.32417 15.05988 15301 ft 316 kts 135°
2026-05-06 18:20 40.31114 15.08461 15447 ft 341 kts 131°
2026-05-06 18:20 40.29550 15.10857 15589 ft 353 kts 143°
2026-05-06 18:20 40.27730 15.13156 15706 ft 374 kts 139°
2026-05-06 18:21 40.25987 15.15786 16062 ft 390 kts 132°
2026-05-06 18:21 40.24473 15.18790 16573 ft 399 kts 127°
2026-05-06 18:21 40.23037 15.21939 17126 ft 405 kts 125°
2026-05-06 18:21 40.21647 15.25176 17673 ft 411 kts 123°
2026-05-06 18:22 40.20280 15.28489 18218 ft 416 kts 123°
2026-05-06 18:22 40.18916 15.31851 18665 ft 421 kts 123°
2026-05-06 18:22 40.17534 15.35251 19135 ft 425 kts 122°
2026-05-06 18:22 40.16131 15.38670 19635 ft 428 kts 123°
2026-05-06 18:23 40.14710 15.42106 20101 ft 431 kts 123°
2026-05-06 18:23 40.13270 15.45564 20571 ft 434 kts 123°
2026-05-06 18:23 40.11832 15.48995 21029 ft 438 kts 123°
2026-05-06 18:23 40.10363 15.52490 21488 ft 441 kts 123°
2026-05-06 18:24 40.08877 15.56020 21957 ft 445 kts 123°
2026-05-06 18:24 40.07382 15.59577 22411 ft 448 kts 123°
2026-05-06 18:24 40.05878 15.63158 22821 ft 452 kts 123°
2026-05-06 18:24 40.04360 15.66765 23264 ft 455 kts 122°
2026-05-06 18:25 40.02828 15.70391 23695 ft 458 kts 122°
2026-05-06 18:25 40.01283 15.74040 24063 ft 460 kts 122°
2026-05-06 18:25 39.99732 15.77704 24429 ft 463 kts 122°
2026-05-06 18:25 39.98175 15.81385 24788 ft 465 kts 122°
2026-05-06 18:26 39.96603 15.85090 25142 ft 467 kts 122°
2026-05-06 18:26 39.95024 15.88804 25503 ft 470 kts 122°
2026-05-06 18:26 39.93440 15.92534 25827 ft 473 kts 122°
2026-05-06 18:26 39.91844 15.96297 26179 ft 474 kts 122°
2026-05-06 18:27 39.90248 16.00057 26516 ft 476 kts 122°
2026-05-06 18:27 39.88641 16.03835 26871 ft 478 kts 122°
2026-05-06 18:27 39.87020 16.07637 27214 ft 480 kts 122°
2026-05-06 18:27 39.85395 16.11443 27526 ft 482 kts 122°
2026-05-06 18:28 39.83761 16.15252 27815 ft 484 kts 122°
2026-05-06 18:28 39.82114 16.19083 28110 ft 486 kts 122°
2026-05-06 18:28 39.80461 16.22930 28396 ft 488 kts 122°
2026-05-06 18:28 39.78805 16.26787 28686 ft 490 kts 122°
2026-05-06 18:29 39.77139 16.30659 28996 ft 491 kts 122°
2026-05-06 18:29 39.75468 16.34536 29405 ft 490 kts 122°
2026-05-06 18:29 39.73803 16.38390 29866 ft 489 kts 122°
2026-05-06 18:29 39.72145 16.42229 30285 ft 487 kts 122°
2026-05-06 18:30 39.70489 16.46060 30641 ft 486 kts 122°
2026-05-06 18:30 39.68832 16.49889 30989 ft 485 kts 122°
2026-05-06 18:30 39.67179 16.53709 31320 ft 485 kts 122°
2026-05-06 18:30 39.65548 16.57474 31650 ft 485 kts 122°
2026-05-06 18:31 39.63892 16.61277 31984 ft 484 kts 122°
2026-05-06 18:31 39.62234 16.65079 32317 ft 484 kts 122°
2026-05-06 18:31 39.60572 16.68873 32634 ft 483 kts 122°
2026-05-06 18:31 39.58889 16.72640 32959 ft 483 kts 122°
2026-05-06 18:32 39.57186 16.76389 33285 ft 483 kts 123°
2026-05-06 18:32 39.55472 16.80127 33596 ft 482 kts 123°
2026-05-06 18:32 39.53757 16.83856 33924 ft 482 kts 123°
2026-05-06 18:32 39.52618 16.86332 34132 ft 482 kts 123°
2026-05-06 18:33 39.50908 16.90054 34426 ft 481 kts 123°
2026-05-06 18:33 39.49202 16.93776 34711 ft 481 kts 123°
2026-05-06 18:33 39.47497 16.97501 35020 ft 480 kts 123°
2026-05-06 18:33 39.45798 17.01221 35297 ft 480 kts 123°
2026-05-06 18:34 39.44100 17.04936 35565 ft 479 kts 123°
2026-05-06 18:34 39.42400 17.08651 35813 ft 479 kts 123°
2026-05-06 18:34 39.40702 17.12353 36071 ft 479 kts 123°
2026-05-06 18:34 39.38998 17.16051 36324 ft 478 kts 123°
2026-05-06 18:35 39.37295 17.19743 36553 ft 478 kts 123°
2026-05-06 18:35 39.35593 17.23432 36793 ft 477 kts 123°
2026-05-06 18:35 39.33893 17.27116 37056 ft 477 kts 123°
2026-05-06 18:35 39.32195 17.30786 37280 ft 476 kts 123°
2026-05-06 18:36 39.30514 17.34412 37412 ft 477 kts 123°
2026-05-06 18:36 39.28806 17.38094 37111 ft 477 kts 123°
2026-05-06 18:36 39.27105 17.41763 36702 ft 477 kts 122°
2026-05-06 18:36 39.25403 17.45432 36307 ft 477 kts 123°
2026-05-06 18:37 39.23698 17.49108 36033 ft 478 kts 123°
2026-05-06 18:37 39.21986 17.52787 36068 ft 480 kts 123°
2026-05-06 18:37 39.18542 17.60179 36069 ft 481 kts 123°
2026-05-06 18:38 39.16817 17.63872 36238 ft 480 kts 123°
2026-05-06 18:38 39.15094 17.67558 36472 ft 480 kts 123°
2026-05-06 18:38 39.13369 17.71246 36707 ft 480 kts 123°
2026-05-06 18:38 39.11646 17.74927 36934 ft 480 kts 122°
2026-05-06 18:39 39.09923 17.78600 37045 ft 479 kts 122°
2026-05-06 18:39 39.08205 17.82257 37056 ft 477 kts 122°
2026-05-06 18:40 39.03057 17.93198 37061 ft 476 kts 122°
2026-05-06 18:40 38.99627 18.00464 37062 ft 475 kts 122°
2026-05-06 18:41 38.96183 18.07725 37065 ft 475 kts 123°
2026-05-06 18:41 38.92738 18.14982 37068 ft 475 kts 123°
2026-05-06 18:42 38.89317 18.22181 37074 ft 476 kts 123°
2026-05-06 18:42 38.85870 18.29423 37076 ft 476 kts 123°
2026-05-06 18:43 38.82411 18.36666 37080 ft 476 kts 123°
2026-05-06 18:43 38.78949 18.43895 37079 ft 476 kts 122°
2026-05-06 18:44 38.75487 18.51123 37071 ft 476 kts 122°
2026-05-06 18:44 38.72027 18.58344 37082 ft 476 kts 122°
2026-05-06 18:45 38.68551 18.65553 37080 ft 475 kts 122°
2026-05-06 18:45 38.65076 18.72741 36727 ft 474 kts 122°
2026-05-06 18:45 38.63338 18.76332 35963 ft 476 kts 122°
2026-05-06 18:46 38.61588 18.79941 35144 ft 479 kts 122°
2026-05-06 18:46 38.59819 18.83582 34296 ft 484 kts 122°
2026-05-06 18:46 38.58029 18.87255 33377 ft 488 kts 122°
2026-05-06 18:46 38.56235 18.90933 32529 ft 489 kts 122°
2026-05-06 18:47 38.54438 18.94620 31732 ft 489 kts 121°
2026-05-06 18:47 38.52662 18.98318 30953 ft 487 kts 118°
2026-05-06 18:47 38.51245 19.02235 30190 ft 485 kts 108°
2026-05-06 18:47 38.50173 19.06305 29229 ft 484 kts 107°
2026-05-06 18:48 38.49109 19.10390 28179 ft 486 kts 108°
2026-05-06 18:48 38.48039 19.14479 27464 ft 486 kts 108°
2026-05-06 18:48 38.46963 19.18579 27202 ft 488 kts 108°
2026-05-06 18:48 38.45879 19.22692 26948 ft 490 kts 108°
2026-05-06 18:49 38.44791 19.26807 26699 ft 489 kts 108°
2026-05-06 18:49 38.43703 19.30916 26451 ft 488 kts 108°
2026-05-06 18:49 38.42618 19.35011 26205 ft 487 kts 108°
2026-05-06 18:49 38.41550 19.39039 25963 ft 485 kts 108°
2026-05-06 18:50 38.40468 19.43108 25718 ft 484 kts 108°
2026-05-06 18:50 38.39387 19.47164 25482 ft 482 kts 108°
2026-05-06 18:50 38.38313 19.51191 25244 ft 479 kts 108°
2026-05-06 18:50 38.37243 19.55205 25007 ft 477 kts 108°
2026-05-06 18:51 38.36174 19.59208 24766 ft 476 kts 109°
2026-05-06 18:51 38.35107 19.63192 24553 ft 474 kts 109°
2026-05-06 18:51 38.34043 19.67156 24312 ft 473 kts 109°
2026-05-06 18:51 38.32979 19.71120 24080 ft 472 kts 109°
2026-05-06 18:52 38.31915 19.75076 23850 ft 471 kts 109°
2026-05-06 18:52 38.30864 19.78964 23610 ft 457 kts 109°
2026-05-06 18:52 38.29846 19.82727 23337 ft 442 kts 109°
2026-05-06 18:52 38.28857 19.86374 23060 ft 429 kts 109°
2026-05-06 18:53 38.27895 19.89908 22799 ft 417 kts 109°
2026-05-06 18:53 38.26742 19.93230 22527 ft 404 kts 123°
2026-05-06 18:53 38.24940 19.95878 22264 ft 391 kts 142°
2026-05-06 18:53 38.22665 19.97637 22017 ft 378 kts 160°
2026-05-06 18:54 38.20166 19.98419 21762 ft 364 kts 178°
2026-05-06 18:54 38.17688 19.98268 21506 ft 352 kts 191°
2026-05-06 18:54 38.15270 19.97880 21254 ft 348 kts 188°
2026-05-06 18:54 38.12858 19.97675 21003 ft 347 kts 184°
2026-05-06 18:55 38.10446 19.97652 20755 ft 346 kts 181°
2026-05-06 18:55 38.08046 19.97820 20509 ft 345 kts 177°
2026-05-06 18:55 38.05690 19.98158 20261 ft 345 kts 174°
2026-05-06 18:55 38.03327 19.98664 20023 ft 344 kts 171°
2026-05-06 18:56 38.00996 19.99338 19779 ft 343 kts 167°
2026-05-06 18:56 37.98707 20.00178 19538 ft 342 kts 164°
2026-05-06 18:56 37.96438 20.01099 19304 ft 341 kts 163°
2026-05-06 18:56 37.94214 20.02155 19077 ft 341 kts 159°
2026-05-06 18:57 37.92065 20.03419 18841 ft 340 kts 154°
2026-05-06 18:57 37.89991 20.04872 18605 ft 339 kts 150°
2026-05-06 18:57 37.88003 20.06479 18372 ft 339 kts 147°
2026-05-06 18:57 37.86091 20.08214 18113 ft 338 kts 144°
2026-05-06 18:58 37.84256 20.10066 17848 ft 337 kts 141°
2026-05-06 18:58 37.82509 20.12041 17590 ft 337 kts 137°
2026-05-06 18:58 37.80856 20.14136 17323 ft 335 kts 134°
2026-05-06 18:58 37.79306 20.16328 17057 ft 334 kts 130°
2026-05-06 18:59 37.77855 20.18616 16680 ft 333 kts 127°
2026-05-06 18:59 37.76509 20.21007 16241 ft 335 kts 124°
2026-05-06 18:59 37.75276 20.23489 15929 ft 332 kts 120°
2026-05-06 18:59 37.74442 20.26193 15512 ft 331 kts 99°
2026-05-06 19:00 37.74333 20.29073 15194 ft 328 kts 89°
2026-05-06 19:00 37.74347 20.31951 14834 ft 327 kts 89°
2026-05-06 19:00 37.74372 20.34814 14516 ft 325 kts 89°
2026-05-06 19:00 37.74391 20.36703 14304 ft 324 kts 89°
2026-05-06 19:01 37.74428 20.40492 13872 ft 321 kts 89°
2026-05-06 19:01 37.74452 20.43312 13507 ft 320 kts 89°
2026-05-06 19:01 37.74473 20.46114 13133 ft 319 kts 89°
2026-05-06 19:01 37.74488 20.48908 12791 ft 317 kts 89°
2026-05-06 19:02 37.74500 20.51681 12446 ft 315 kts 89°
2026-05-06 19:02 37.74511 20.54440 12079 ft 314 kts 89°
2026-05-06 19:02 37.74522 20.57195 11691 ft 313 kts 89°
2026-05-06 19:02 37.74252 20.59899 11196 ft 309 kts 110°
2026-05-06 19:03 37.73112 20.62150 10561 ft 304 kts 139°
2026-05-06 19:03 37.71320 20.63481 9918 ft 298 kts 166°
2026-05-06 19:03 37.69321 20.64123 9171 ft 297 kts 166°
2026-05-06 19:03 37.67365 20.64909 8499 ft 294 kts 161°
2026-05-06 19:04 37.65494 20.65928 7876 ft 290 kts 154°
2026-05-06 19:04 37.63755 20.67169 7335 ft 284 kts 148°
2026-05-06 19:04 37.62164 20.68601 6760 ft 279 kts 142°
2026-05-06 19:04 37.60734 20.70181 6163 ft 275 kts 136°
2026-05-06 19:05 37.59424 20.71927 5550 ft 274 kts 130°
2026-05-06 19:05 37.58277 20.73783 5405 ft 262 kts 126°
2026-05-06 19:05 37.57308 20.75667 5285 ft 250 kts 121°
2026-05-06 19:05 37.56505 20.77562 5154 ft 240 kts 116°
2026-05-06 19:06 37.55857 20.79466 4777 ft 236 kts 110°
2026-05-06 19:06 37.55341 20.81434 4258 ft 236 kts 105°
2026-05-06 19:06 37.54958 20.83445 3775 ft 236 kts 100°
2026-05-06 19:06 37.54701 20.85477 3292 ft 235 kts 96°
2026-05-06 19:07 37.54573 20.87498 3016 ft 224 kts 90°
2026-05-06 19:07 37.54559 20.88763 3006 ft 213 kts 88°
2026-05-06 19:07 37.54779 20.91147 3015 ft 198 kts 64°
2026-05-06 19:07 37.55607 20.92379 3017 ft 177 kts 37°
2026-05-06 19:08 37.56547 20.93259 2996 ft 159 kts 33°
2026-05-06 19:08 37.57480 20.93919 3001 ft 151 kts 15°
2026-05-06 19:08 37.58496 20.94173 3010 ft 148 kts
2026-05-06 19:08 37.59515 20.94072 2991 ft 147 kts 348°
2026-05-06 19:09 37.60482 20.93764 2779 ft 141 kts 342°
2026-05-06 19:09 37.61409 20.93373 2565 ft 141 kts 340°
2026-05-06 19:09 37.62320 20.92964 2387 ft 137 kts 340°
2026-05-06 19:09 37.63217 20.92557 2204 ft 136 kts 340°
2026-05-06 19:10 37.64115 20.92176 2015 ft 137 kts 343°
2026-05-06 19:10 37.65042 20.91873 1841 ft 138 kts 347°
2026-05-06 19:10 37.65975 20.91635 1690 ft 136 kts 349°
2026-05-06 19:10 37.66896 20.91360 1528 ft 137 kts 343°
2026-05-06 19:11 37.67813 20.91038 1345 ft 136 kts 343°
2026-05-06 19:11 37.68725 20.90713 1161 ft 136 kts 343°
2026-05-06 19:11 37.69622 20.90374 992 ft 136 kts 342°
2026-05-06 19:11 37.70523 20.90012 808 ft 136 kts 342°
2026-05-06 19:12 37.71442 20.89719 633 ft 137 kts 348°
2026-05-06 19:12 37.72376 20.89467 426 ft 137 kts 345°
2026-05-06 19:12 37.73288 20.89115 237 ft 137 kts 344°
2026-05-06 19:12 37.74205 20.88766 47 ft 137 kts 343°
2026-05-06 19:13 37.75016 20.88457 14 ft 88 kts 343°
2026-05-06 19:13 37.75432 20.88305 16 ft 49 kts 343°
2026-05-06 19:13 37.75523 20.88270 16 ft 0 kts 341°
2026-05-06 19:15 37.75524 20.88269 16 ft 2 kts 337°
2026-05-06 19:15 37.75543 20.88244 16 ft 0 kts 313°
2026-05-06 19:15 37.75558 20.88244 16 ft 4 kts 24°
2026-05-06 19:15 37.75540 20.88268 18 ft 10 kts 139°
2026-05-06 19:16 37.75462 20.88388 17 ft 18 kts 123°
2026-05-06 19:16 37.75402 20.88486 16 ft 12 kts 133°
2026-05-06 19:16 37.75375 20.88505 16 ft 0 kts 164°